Weather in Katrichev

Russia / Volgograd Oblast     49°22′50″N   45°32′17″E
temp.,
°C
wind,
m/s
gust,
m/s
humid.,
%
clouds,
%
prec.,
mm/h
press.,
hPa
HPBL,
m
5 august, thu
thu500:00+22n41060100 0.0 1015230
03:00+21nne496795 0.0 1015207
06:00+21nne47649 0.0 1016251
09:00+27nne453599 0.0 10161452
12:00+30n4424100 0.0 10162235
15:00+31n342161 0.0 10152616
18:00+30ne442224 0.0 10142539
21:00+25ne3432100 0.0 101540
6 august, fri
fri600:00+23ne343761 0.0 101557
03:00+20ne45445 0.0 101575
06:00+21ene364120 0.0 1016152
09:00+29e34265 0.0 1015970
12:00+32e44200 0.0 10142264
15:00+34e44170 0.0 10132737
18:00+33e44185 0.0 10122590
21:00+26ene511275 0.0 1013199
7 august, sat
sat700:00+24e613309 0.0 1013267
03:00+22e411315 0.0 1013192
06:00+23e410335 0.0 1014267
09:00+30ese6721100 0.0 10131058
12:00+34ese5615100 0.0 10121995
15:00+36ese5512100 0.0 10112465
18:00+35ese5714100 0.0 1010388
21:00+29e481985 0.0 1011100
8 august, sun
sun800:00+26e5132387 0.0 1011229
03:00+25ese513256 0.0 1012254
06:00+26ese51325100 0.0 1012319
09:00+33ese6919100 0.0 1012620
12:00+37ese7814100 0.0 10111814
15:00+39se7812100 0.0 10103623
18:00+34nne71118100 0.0 1008306
21:00+34ene81317100 0.0 1008489
9 august, mon
mon900:00+31e482199 0.0 1008157
03:00+28e41030100 0.5 1007174
06:00+26se234088 0.4 1006133
09:00+31ssw6828100 0.4 1007595
12:00+36sw8112145 0.0 10071901
15:00+37sw910215 0.0 10072525
18:00+36ssw792030 0.0 10062067
21:00+29wsw333353 0.0 100637